This is the latest recevied weather packets stored in our database for station/object K4DNM. If no packets are shown the sender has not sent any weather packets the latest 10 day(s).
| Time | Temp. | Humidity | Pressure | Rain* | Wind** | Luminosity | Snow |
|---|---|---|---|---|---|---|---|
| 1778098412 | 23.33° C | 71% | 1010.1 hPa | 0.25 mm | - | 169 W/m² | - |
| 1778098111 | 23.89° C | 72% | 1010.5 hPa | 0.25 mm | - | 134 W/m² | - |
| 1778097870 | 24.44° C | 70% | 1011 hPa | 0.25 mm | - | 114 W/m² | - |
| 1778097511 | 25° C | 71% | 1011.4 hPa | 0.25 mm | - | 100 W/m² | - |
| 1778097209 | 25° C | 65% | 1011.6 hPa | 0.25 mm | - | 77 W/m² | - |
| 1778096968 | 25.56° C | 60% | 1011.7 hPa | 0 mm | - | 77 W/m² | - |
| 1778096602 | 26.11° C | 59% | 1011.6 hPa | 0 mm | - | 96 W/m² | - |
| 1778096362 | 26.11° C | 58% | 1011.9 hPa | 0 mm | - | 115 W/m² | - |
| 1778096001 | 26.11° C | 57% | 1012.1 hPa | 0 mm | - | 109 W/m² | - |
| 1778095698 | 26.11° C | 57% | 1012.3 hPa | 0 mm | - | 67 W/m² | - |
| 1778095399 | 26.67° C | 57% | 1012.3 hPa | 0 mm | - | 90 W/m² | - |
| 1778095097 | 26.67° C | 56% | 1012.2 hPa | 0 mm | - | 169 W/m² | - |
| 1778094811 | 26.67° C | 56% | 1012.2 hPa | 0 mm | - | 261 W/m² | - |
| 1778094557 | 26.67° C | 55% | 1012.2 hPa | 0 mm | - | 209 W/m² | - |
| 1778094199 | 26.67° C | 54% | 1012.2 hPa | 0 mm | - | 169 W/m² | - |
| 1778093958 | 26.67° C | 55% | 1012.3 hPa | 0 mm | - | 265 W/m² | - |
| 1778093657 | 27.22° C | 54% | 1012.2 hPa | 0 mm | - | 472 W/m² | - |
| 1778093295 | 27.22° C | 53% | 1012.2 hPa | 0 mm | - | 354 W/m² | - |
| 1778092995 | 27.22° C | 56% | 1012 hPa | 0 mm | - | 473 W/m² | - |
| 1778092694 | 27.22° C | 54% | 1012.4 hPa | 0 mm | - | 290 W/m² | - |
| 1778092455 | 27.22° C | 56% | 1012.4 hPa | 0 mm | - | 533 W/m² | - |
| 1778092093 | 27.22° C | 54% | 1012.4 hPa | 0 mm | - | 296 W/m² | - |
| 1778091795 | 27.22° C | 55% | 1012.5 hPa | 0 mm | - | 535 W/m² | - |
| 1778091492 | 27.22° C | 55% | 1012.4 hPa | 0 mm | - | 554 W/m² | - |
| 1778091191 | 26.67° C | 55% | 1012.5 hPa | 0 mm | - | 538 W/m² | - |
* Rain latest hour (hover to see other rain measurements)
** Current wind speed in m/s (hover to see current wind gust speed)